This is the latest recevied weather packets stored in our database for station/object DL1GHN-6. If no packets are shown the sender has not sent any weather packets the latest 1 day(s).
| Time | Temp. | Humidity | Pressure | Rain* | Wind** | Luminosity | Snow |
|---|---|---|---|---|---|---|---|
| 1778036717 | 11.11° C | 82% | 1006.8 hPa | 0 mm | - | 0 W/m² | - |
| 1778036417 | 11.67° C | 81% | 1006.8 hPa | 0 mm | - | 0 W/m² | - |
| 1778036117 | 11.67° C | 81% | 1006.9 hPa | 0 mm | - | 0 W/m² | - |
| 1778035818 | 12.22° C | 81% | 1006.9 hPa | 0 mm | - | 0 W/m² | - |
| 1778035518 | 12.22° C | 81% | 1007 hPa | 0 mm | - | 0 W/m² | - |
| 1778035217 | 12.78° C | 80% | 1007.1 hPa | 0 mm | - | 0 W/m² | - |
| 1778034918 | 12.78° C | 81% | 1007.2 hPa | 0 mm | - | 0 W/m² | - |
| 1778034619 | 12.78° C | 80% | 1007.3 hPa | 0 mm | - | 0 W/m² | - |
| 1778034318 | 13.33° C | 80% | 1007.3 hPa | 0 mm | - | 0 W/m² | - |
| 1778034018 | 13.33° C | 80% | 1007.3 hPa | 0 mm | - | 0 W/m² | - |
| 1778033718 | 13.33° C | 80% | 1007.3 hPa | 0 mm | - | 0 W/m² | - |
| 1778033418 | 13.33° C | 80% | 1007.3 hPa | 0 mm | - | 0 W/m² | - |
| 1778033119 | 13.33° C | 81% | 1007.4 hPa | 0 mm | - | 0 W/m² | - |
| 1778032519 | 12.78° C | 82% | 1007.4 hPa | 0 mm | - | 0 W/m² | - |
| 1778031918 | 12.78° C | 83% | 1007.5 hPa | 0 mm | - | 0 W/m² | - |
| 1778031318 | 12.22° C | 84% | 1007.4 hPa | 0 mm | - | 0 W/m² | - |
| 1778031019 | 12.22° C | 84% | 1007.5 hPa | 0 mm | - | 0 W/m² | - |
| 1778030717 | 12.22° C | 84% | 1007.5 hPa | 0 mm | - | 0 W/m² | - |
| 1778030419 | 12.22° C | 84% | 1007.5 hPa | 0 mm | - | 0 W/m² | - |
| 1778030119 | 12.22° C | 84% | 1007.4 hPa | 0 mm | - | 0 W/m² | - |
| 1778029818 | 12.78° C | 84% | 1007.5 hPa | 0 mm | - | 0 W/m² | - |
| 1778028918 | 12.78° C | 83% | 1007.5 hPa | 0 mm | - | 0 W/m² | - |
| 1778027717 | 13.33° C | 83% | 1007.7 hPa | 0 mm | - | 0 W/m² | - |
| 1778026818 | 13.33° C | 83% | 1007.8 hPa | 0 mm | - | 0 W/m² | - |
| 1778024719 | 12.78° C | 85% | 1008.3 hPa | 0 mm | - | 0 W/m² | - |
* Rain latest hour (hover to see other rain measurements)
** Current wind speed in m/s (hover to see current wind gust speed)